Regional Weather Roundup
Issued by NWS

Home | Current Version | Previous Version | Graphics & Text | Print | Product List | Glossary On
Versions: 1 2 3 4 5 6 7 8 9 10 11 12 13 14 15 16 17 18 19 20 21 22 23 24 25 26 27 28 29 30 31 32 33 34 35 36 37 38 39 40 41 42 43 44 45 46 47 48 49 50
000
ASUS43 KFSD 222010
RWRSD

WEATHER ROUNDUP FOR SOUTH DAKOTA
NATIONAL WEATHER SERVICE SIOUX FALLS SD
300 PM CDT TUE APR 22 2014

NOTE: "FAIR" INDICATES FEW OR NO CLOUDS BELOW 12,000 FEET WITH NO
SIGNIFICANT WEATHER AND/OR OBSTRUCTIONS TO VISIBILITY.


SDZ001>005-009-010-012>017-222100-
NORTHWEST AND NORTH CENTRAL SOUTH DAKOTA

CITY           SKY/WX    TMP DP  RH WIND       PRES   REMARKS
BUFFALO          N/A     68  34  28 E22G29    29.67F
MOBRIDGE       PTSUNNY   68  30  24 SE23      29.84F
$$

SDZ012>016-024>037-041>051-057-063-072>074-222100-
SOUTHWEST AND SOUTH CENTRAL SOUTH DAKOTA

CITY           SKY/WX    TMP DP  RH WIND       PRES   REMARKS
RAPID CTY ARPT PTSUNNY   75  40  28 S16G25    29.69F
PIERRE         MOSUNNY   73  33  23 SE28G36   29.82F
CUSTER         PTSUNNY   66  34  30 W9        29.81F
ELLSWORTH AFB  PTSUNNY   74  42  30 S14       29.69F
PHILIP         PTSUNNY   80  41  24 S15G24    29.70F
PINE RIDGE     PTSUNNY   75  42  30 S20G29    29.74F
SPEARFISH      FAIR      66  39  37 E9        29.74F
$$

SDZ004>011-016>023-039-040-222100-
NORTHEAST SOUTH DAKOTA

CITY           SKY/WX    TMP DP  RH WIND       PRES   REMARKS
ABERDEEN       MOSUNNY   65  29  25 S17G28    29.96F
WATERTOWN      SUNNY     63  32  31 S9G18     30.01F
SISSETON         N/A     63  30  28 SE10      30.01F
$$

SDZ017-020-022-023-036>040-048>070-222100-
SOUTHEAST SOUTH DAKOTA

CITY           SKY/WX    TMP DP  RH WIND       PRES   REMARKS
SIOUX FALLS    PTSUNNY   65  30  27 VRB6G20   30.03F
HURON          CLOUDY    65  29  25 SE18      29.95F
CHAMBERLAIN      N/A     71  31  22 S23G35    29.90F
MITCHELL       CLOUDY    65  29  25 SE24      29.97F
YANKTON        MOSUNNY   64  28  25 SE16      30.02F
$$

ABBREVIATIONS USED IN REMARKS
   TC - TEMPERATURE IN CELSIUS
  WCI - WIND CHILL INDEX
   HX - HEAT INDEX
  VSB - VISIBILITY




USA.gov is the U.S. government's official web portal to all federal, state and local government web resources and services.